Jackson Hawkins Field, MS

2:32 PM CST on December 09, 2019 (GMT -0600)
Hawkins

Weather History for KHKS - November, 2019

Change the Weather History Date:

Tuesday, November 19, 2019

  Actual Average (KJAN) Record (KJAN)
Temperature  
Mean Temperature 57 °F -  
Max Temperature 75 °F 68 °F 86 °F (1930)
Min Temperature 38 °F 45 °F 17 °F (1903)
Degree Days  
Heating Degree Days 8    
Month to date heating degree days 287  
Growing Degree Days 6 (Base 50)    
Moisture  
Dew Point 38 °F    
Average Humidity 59    
Maximum Humidity 92    
Minimum Humidity 25    
Precipitation  
Precipitation 0.00 in - - ()
Month to date precipitation 0.69  
Year to date precipitation 53.76  
Sea Level Pressure  
Sea Level Pressure 29.96 in    
Wind  
Wind Speed 5 mph (NW)    
Max Wind Speed 17 mph    
Max Gust Speed 23 mph    
Visibility 10 miles    
Events      
Averages and records for this station are not official NWS values.
T = Trace of Precipitation, MM = Missing Value Source: NWS Daily Summary

Daily Weather History Graph

Daily Weather History Graph

Search for Another Location

Airport or City:

Astronomy

Nov. 19, 2019 Rise Set
Actual Time 6:33 AM CST 4:58 PM CST
Civil Twilight 6:07 AM CST 5:24 PM CST
Nautical Twilight 5:37 AM CST 5:54 PM CST
Astronomical Twilight 5:08 AM CST 6:23 PM CST
Moon 11:50 PM CST (11/19) 12:46 PM CST (11/19)
Length of Visible Light 11h 17m
Length of Day
10h 25m
Waning Gibbous, 51% of the Moon is Illuminated
Nov 19
Waning Gibbous
Nov 19
Last Quarter
Nov 26
New
Dec 4
First Quarter
Dec 11
Full

Hourly Weather History & Observations

Time (CST) Temp. Windchill Dew Point Humidity Pressure Visibility Wind Dir Wind Speed Gust Speed Precip Events Conditions
12:53 AM 39.0 °F - 36.0 °F 89% 29.92 in 9.0 mi Calm Calm - N/A   Clear
1:53 AM 37.9 °F - 35.1 °F 89% 29.91 in 9.0 mi Calm Calm - N/A   Scattered Clouds
2:53 AM 43.0 °F - 37.9 °F 82% 29.90 in 10.0 mi Calm Calm - N/A   Overcast
3:53 AM 44.1 °F - 37.0 °F 76% 29.89 in 10.0 mi Calm Calm - N/A   Clear
4:53 AM 41.0 °F - 36.0 °F 82% 29.90 in 10.0 mi Calm Calm - N/A   Clear
5:53 AM 41.0 °F 39.0 °F 36.0 °F 82% 29.90 in 10.0 mi SE 3.5 mph - N/A   Clear
6:53 AM 45.0 °F - 36.0 °F 71% 29.91 in 10.0 mi Calm Calm - N/A   Clear
7:53 AM 54.0 °F - 39.9 °F 59% 29.93 in 10.0 mi West 8.1 mph - N/A   Clear
8:53 AM 57.0 °F - 39.9 °F 53% 29.96 in 10.0 mi WNW 15.0 mph - N/A   Clear
10:53 AM 66.9 °F - 41.0 °F 39% 29.96 in 10.0 mi WNW 10.4 mph - N/A   Clear
11:53 AM 71.1 °F - 42.1 °F 35% 29.95 in 10.0 mi Variable 6.9 mph - N/A   Clear
12:53 PM 73.0 °F - 41.0 °F 31% 29.94 in 10.0 mi WNW 11.5 mph - N/A   Clear
1:53 PM 75.0 °F - 37.9 °F 26% 29.94 in 10.0 mi NW 12.7 mph 19.6 mph N/A   Clear
2:53 PM 73.9 °F - 37.9 °F 27% 29.95 in 10.0 mi WNW 12.7 mph - N/A   Clear
3:53 PM 73.0 °F - 37.0 °F 27% 29.96 in 10.0 mi NNW 9.2 mph - N/A   Clear
4:53 PM 69.1 °F - 36.0 °F 30% 29.98 in 10.0 mi NNW 3.5 mph - N/A   Clear
5:53 PM 63.0 °F - 37.9 °F 40% 30.00 in 10.0 mi Calm Calm - N/A   Clear
6:53 PM 59.0 °F - 39.0 °F 48% 30.02 in 10.0 mi North 3.5 mph - N/A   Clear
7:53 PM 53.1 °F - 39.9 °F 61% 30.04 in 10.0 mi Calm Calm - N/A   Clear
8:53 PM 51.1 °F - 39.9 °F 66% 30.04 in 10.0 mi Calm Calm - N/A   Clear
10:53 PM 46.9 °F - 39.0 °F 74% 30.05 in 10.0 mi Calm Calm - N/A   Clear
11:53 PM 46.0 °F - 39.0 °F 76% 30.06 in 10.0 mi Calm Calm - N/A   Clear